DMSP 5D-2 F13 DEB, 40415

Orbit data source: Space-Track

DMSP 5D-2 F13 DEB, 40415 is space debris in SSO originally from a launch on Fri, 24 Mar 1995 UTC launched from the Air Force Western Test Range (AFWTR). Debris objects in space refer to the collection of defunct objects orbiting the Earth. Examples of debris include non-operational satellites, rocket bodies, and fragments generated from explosions, collisions, or faulty payload assembly.

Loading next visibility...
Identifier
40415, 1995-015AC
Orbit
SSO
Country
Flag of USUS
Related business
Manufacturer
Unknown
Mission
Spacecraft
Bus & Motor
Unknown
Mass
Unknown
Launch date (UTC)
1995-03-24 (31 years ago)
Launch vehicle
Unknown
Launch site
Air Force Western Test Range (AFWTR)
Object type
Payload
Rocket body
Debris
Shape & HBR
Unknown shape, 0.1 m
Radar Cross Section
Small (<0.1 m²)

Expand to show TLE details & history
Last TLE update: 14 hours ago

TLE from 14 hours ago
0 DMSP 5D-2 F13 DEB
1 40415U 95015AC  26037.04666906  .00003418  00000-0  13691-2 0  9997
2 40415  98.7309  64.3929 0004937   8.9197 351.2071 14.28972011567318
Epoch: 2026-02-06T01:07Z
TLE epoch observation values (Epoch: 2026-02-06T01:07:12.206Z)
Latitude
-0.00006°
Longitude
-88.59811°
Altitude
794.595 km
Speed
7.458 km/s
True Right ascension
04h 17m 34s
True Declination
0° 00' 00"
Sunlit
Object was in daylight at epoch
Visualization orbit readout
Latitude
Unknown
Longitude
Unknown
Altitude
Unknown
Speed
Unknown
Apparent Right ascension
Unknown
Apparent Declination
Unknown
Sunlit
N/A
Visualization observer readout
Local Sidereal Time
17:09:23
Azimuth
Unknown
Elevation
Unknown
Doppler factor
Unknown
Orbital elements
Apogee altitude
795.857 km
Perigee altitude
788.777 km
Semi-major axis
7,170.454 km
Eccentricity
0.00049
Inclination
98.7309°
RAAN
64.3929°
Arg. of periapsis
8.9197°
True anomaly
351.19845°
Mean anomaly
351.2071°
Eccentric anomaly
351.20277°
Mean motion
3.57457 °/min
Orbital period
100.71 mins
BSTAR
0.0013691
Loading maneuver chart data...
Computing Atmospheric mass density...

Documentation

Showing up to 5 results
|